Wind_Speed
20 19 19 18 17 17 18 18 18 18 18 19 19 20 20 21 22 22 22 22 23 23 23 24 24 24 24 25 26 26 27 27 27 27 27 27 28 28
21 20 20 20 19 19 19 19 20 20 20 21 22 23 23 24 24 25 25 26 26 27 27 28 28 28 28 29 29 30 31 31 31 31 31 31 31 31
23 23 22 22 22 21 21 21 22 22 22 23 24 24 25 26 27 28 28 28 29 30 30 31 31 32 33 33 33 34 34 34 34 34 34 34 34 34
25 25 25 25 24 24 24 24 24 24 24 25 26 26 26 27 28 28 28 29 30 31 32 33 34 35 36 36 36 37 38 38 38 38 38 38 38 38
27 27 27 26 26 26 26 26 27 27 27 28 28 29 29 29 29 30 30 31 32 34 35 36 36 37 38 38 39 40 41 41 41 41 42 42 42 42
27 28 28 28 28 29 28 29 29 30 30 30 30 31 32 32 32 33 34 34 35 36 37 38 39 40 40 41 42 42 43 44 44 45 45 45 45 45
28 28 28 29 29 30 31 32 32 32 32 32 32 33 34 35 36 36 36 37 38 39 39 40 42 43 43 44 45 46 46 46 47 47 48 48 48 48
28 29 30 31 31 32 32 32 33 34 34 34 35 36 37 38 39 39 39 39 40 41 42 43 44 45 46 47 48 48 49 49 50 50 51 51 52 51
29 30 31 31 32 33 33 34 35 36 37 38 38 39 40 40 41 40 41 42 43 44 45 45 46 48 49 50 50 51 51 51 52 52 53 54 55 55
30 30 31 31 32 33 35 35 36 37 38 39 40 41 41 41 42 43 43 44 45 46 48 48 49 50 51 52 52 53 54 55 55 55 55 56 55 55
30 31 31 31 33 33 34 36 38 39 40 41 42 43 44 44 45 46 46 47 47 48 49 50 51 52 52 53 55 56 56 57 57 58 58 57 56 56
30 30 31 32 33 35 36 37 37 39 40 42 43 44 44 45 47 48 49 49 50 51 52 54 55 56 55 55 56 57 58 58 59 58 58 58 58 58
29 29 30 32 33 34 36 37 39 40 41 43 45 46 46 48 49 50 51 53 54 55 56 57 57 58 59 58 58 58 59 58 58 58 59 58 58 58
28 29 31 32 34 35 37 39 41 43 44 45 47 48 49 50 52 53 54 55 56 57 58 59 59 59 59 60 59 59 58 58 58 57 57 57 57 57
31 32 33 34 35 37 38 41 42 43 45 47 48 50 51 52 53 54 55 56 57 57 58 58 58 58 57 58 58 57 56 55 55 55 55 55 55 55
32 32 34 35 37 38 40 42 43 45 47 48 49 50 52 52 53 54 54 55 55 55 55 55 54 54 54 54 54 53 52 52 52 52 52 52 53 53
33 34 35 37 39 40 42 43 44 46 47 48 49 49 49 49 50 52 53 53 53 52 52 51 51 51 51 51 51 51 51 51 51 50 50 49 49 49
34 36 37 39 40 40 41 42 43 44 45 46 46 46 47 47 48 49 49 49 49 49 50 49 49 49 49 50 51 51 51 50 49 49 47 45 43 42
35 36 38 39 40 40 41 41 42 42 43 44 44 45 45 45 46 46 46 47 47 46 46 46 47 47 46 46 46 47 47 46 45 44 42 39 38 38
36 38 39 40 41 41 41 42 42 42 43 43 43 43 43 43 43 43 43 44 43 42 42 42 42 42 42 41 40 39 40 40 38 37 36 35 34 34
38 39 40 40 41 42 42 42 42 42 41 41 41 41 41 41 42 41 40 40 39 39 38 38 38 38 38 37 36 35 35 35 34 33 32 31 31 31
39 40 41 41 42 42 42 42 41 40 40 39 40 40 40 40 39 39 38 38 37 37 36 36 36 35 35 34 33 33 32 32 32 31 29 28 27 27
39 40 40 40 41 40 40 40 40 40 40 40 40 39 39 38 38 37 37 37 36 35 34 34 33 32 32 31 31 30 30 29 29 28 27 27 26 25
Wind_Direction
247 250 252 255 258 261 263 264 265 265 266 266 267 268 268 269 270 271 272 273 275 275 275 276 276 277 278 278 279 279 279 280 280 280 280 280 281 281
248 250 252 255 259 261 263 265 266 267 268 269 270 271 272 272 273 273 274 274 275 275 276 276 277 278 278 279 279 279 279 279 280 279 279 279 279 280
250 251 253 256 259 260 262 263 266 268 269 270 272 272 273 274 275 275 276 275 277 277 277 278 278 279 279 279 279 279 279 279 279 279 279 279 279 280
250 252 255 257 260 262 265 266 267 268 269 270 272 273 273 275 276 277 277 278 279 279 279 278 278 278 279 279 279 279 279 279 279 279 278 279 279 279
251 253 256 258 262 264 265 267 267 268 269 270 272 273 273 275 276 277 278 278 279 279 279 279 279 279 279 279 280 280 280 279 279 278 278 278 279 279
253 255 257 260 263 265 266 268 270 269 269 270 272 274 274 275 277 278 279 280 280 280 279 280 280 279 279 280 280 280 280 279 279 279 278 278 278 278
255 258 261 264 264 266 267 268 270 271 271 271 272 274 275 276 277 278 278 279 280 281 281 281 281 280 280 280 280 280 280 279 279 279 279 279 278 278
260 263 265 266 267 268 270 271 273 273 273 273 273 275 276 277 277 277 277 278 279 279 280 281 281 280 280 280 280 280 281 280 279 279 279 279 280 279
263 264 267 268 269 268 269 271 272 273 273 274 275 276 277 277 277 278 278 278 278 279 280 281 281 281 281 281 281 281 281 281 280 280 279 279 279 279
266 268 271 269 269 270 271 272 272 274 275 276 277 278 278 278 278 278 278 278 279 280 281 281 281 281 281 281 281 280 280 280 280 281 280 280 279 278
270 271 272 271 272 273 275 276 276 276 276 276 277 278 278 278 278 279 279 279 280 281 281 281 280 281 281 281 280 280 280 280 280 280 280 280 279 279
272 273 273 275 276 276 277 277 278 279 278 278 279 279 280 280 280 280 280 280 281 282 282 281 282 282 282 282 282 282 281 281 281 280 280 279 279 279
275 276 277 278 279 279 280 280 279 279 280 281 281 280 281 282 282 282 282 282 282 282 282 282 282 283 283 282 282 282 282 282 281 281 280 280 280 280
278 280 281 281 281 282 282 281 281 282 283 283 282 282 283 284 283 283 283 283 284 284 284 283 284 284 284 284 283 283 283 283 282 281 281 281 281 281
281 282 282 283 283 284 285 284 285 285 286 286 286 285 285 285 284 284 284 284 285 284 285 285 285 285 285 286 285 284 283 283 283 282 282 282 282 281
284 284 284 286 287 287 287 286 287 288 288 288 288 287 286 286 286 286 286 286 286 286 286 286 287 287 287 287 286 285 285 284 284 283 284 284 283 282
286 286 287 289 290 291 290 289 289 290 291 291 291 292 292 291 289 288 288 287 287 288 289 289 289 289 288 287 286 286 286 286 285 285 285 285 284 283
289 289 291 291 292 293 294 294 293 293 293 293 293 293 293 293 293 292 292 292 291 291 290 290 290 289 289 288 288 287 287 287 286 287 288 287 285 284
292 292 293 294 295 295 296 296 296 296 296 296 295 295 295 295 295 295 295 295 295 294 292 292 292 291 291 291 290 289 289 289 289 289 289 287 285 284
294 295 295 296 297 297 297 298 298 297 297 297 297 297 298 298 298 298 298 297 297 296 296 295 295 295 295 294 294 292 291 290 289 289 287 287 287 286
297 297 297 297 298 298 299 299 298 298 298 298 298 298 299 299 300 300 300 300 299 299 298 297 297 298 298 298 297 296 295 294 293 291 290 288 287 287
299 299 299 300 300 300 300 300 299 299 298 298 298 299 299 300 300 300 300 300 300 300 300 299 299 300 299 298 297 298 296 295 295 295 294 293 292 290
301 301 301 301 301 301 300 300 300 299 299 299 299 300 300 300 300 301 302 301 301 301 301 301 301 301 301 300 298 298 297 297 296 295 295 295 296 295
Height
5873 5874 5875 5876 5877 5877 5877 5878 5878 5878 5878 5878 5877 5877 5877 5877 5876 5876 5876 5875 5875 5874 5873 5873 5872 5872 5871 5870 5869 5868 5867 5866 5865 5864 5863 5862 5861 5860
5869 5870 5871 5872 5872 5873 5873 5873 5874 5874 5874 5873 5873 5872 5872 5872 5871 5870 5870 5869 5869 5868 5868 5867 5866 5865 5864 5863 5862 5861 5860 5859 5857 5856 5855 5854 5853 5852
5864 5865 5866 5867 5868 5868 5868 5868 5868 5869 5868 5868 5867 5866 5866 5866 5865 5864 5864 5863 5862 5861 5861 5860 5859 5858 5857 5856 5854 5853 5852 5851 5849 5848 5847 5846 5845 5844
5859 5860 5861 5861 5862 5862 5863 5863 5863 5863 5862 5862 5861 5860 5860 5859 5859 5858 5857 5856 5855 5854 5853 5851 5850 5849 5848 5847 5845 5844 5843 5841 5840 5839 5838 5836 5835 5834
5852 5853 5854 5855 5856 5856 5856 5856 5856 5856 5856 5855 5854 5853 5853 5852 5852 5851 5849 5848 5847 5846 5844 5843 5841 5840 5838 5837 5835 5834 5833 5831 5830 5829 5827 5826 5825 5823
5846 5847 5848 5849 5849 5849 5849 5849 5849 5849 5848 5848 5847 5846 5845 5844 5844 5842 5841 5840 5838 5837 5835 5833 5832 5830 5828 5826 5825 5823 5821 5820 5819 5817 5816 5814 5813 5812
5839 5840 5841 5842 5842 5842 5842 5842 5841 5841 5840 5840 5839 5838 5837 5836 5835 5833 5832 5830 5829 5827 5825 5823 5821 5819 5817 5815 5813 5811 5809 5808 5806 5805 5803 5801 5800 5799
5833 5834 5834 5834 5834 5834 5834 5833 5833 5832 5832 5831 5830 5829 5828 5826 5825 5823 5822 5820 5818 5816 5814 5812 5809 5807 5804 5802 5800 5798 5796 5794 5793 5791 5789 5787 5786 5784
5826 5826 5826 5826 5825 5825 5825 5824 5824 5823 5822 5822 5820 5819 5817 5815 5814 5812 5810 5809 5807 5804 5802 5800 5797 5794 5792 5789 5786 5784 5782 5779 5778 5776 5774 5772 5771 5769
5819 5819 5819 5818 5818 5817 5816 5815 5814 5813 5812 5811 5810 5808 5806 5804 5802 5801 5798 5797 5795 5792 5789 5787 5785 5782 5778 5775 5772 5769 5766 5764 5762 5760 5758 5756 5754 5752
5811 5811 5811 5811 5809 5808 5807 5806 5804 5803 5801 5800 5798 5796 5794 5792 5790 5788 5786 5783 5781 5779 5775 5773 5770 5767 5764 5761 5756 5753 5751 5748 5746 5743 5741 5739 5737 5735
5804 5804 5803 5802 5801 5799 5798 5796 5795 5793 5791 5789 5787 5785 5782 5780 5777 5775 5772 5769 5767 5764 5761 5757 5754 5751 5749 5746 5741 5737 5733 5731 5728 5726 5724 5722 5719 5717
5797 5796 5795 5793 5792 5790 5788 5786 5784 5782 5780 5777 5775 5772 5769 5767 5764 5761 5757 5754 5751 5748 5745 5741 5738 5734 5731 5730 5726 5721 5716 5713 5711 5708 5706 5704 5701 5699
5789 5788 5786 5784 5783 5781 5778 5776 5773 5771 5768 5765 5762 5759 5756 5752 5749 5746 5742 5739 5735 5732 5728 5724 5721 5717 5714 5711 5708 5705 5700 5696 5693 5690 5688 5686 5683 5681
5781 5779 5777 5775 5773 5770 5768 5765 5762 5759 5756 5752 5749 5745 5741 5738 5734 5730 5726 5722 5718 5714 5711 5707 5704 5700 5695 5692 5689 5686 5682 5679 5675 5672 5670 5668 5665 5663
5772 5770 5767 5765 5763 5760 5757 5754 5750 5747 5743 5739 5735 5731 5727 5723 5719 5715 5710 5706 5702 5698 5693 5690 5686 5683 5679 5675 5671 5668 5665 5662 5659 5655 5653 5650 5647 5645
5762 5760 5758 5755 5752 5749 5745 5741 5737 5733 5729 5725 5720 5716 5712 5707 5703 5699 5695 5691 5687 5683 5679 5674 5669 5666 5662 5659 5655 5652 5648 5645 5642 5639 5637 5635 5631 5628
5753 5750 5747 5744 5741 5737 5733 5729 5725 5720 5716 5711 5707 5703 5698 5693 5689 5684 5680 5676 5672 5667 5663 5659 5655 5651 5648 5644 5639 5635 5632 5629 5626 5624 5621 5619 5617 5613
5743 5740 5736 5733 5729 5725 5721 5717 5713 5708 5704 5699 5695 5690 5685 5681 5676 5671 5667 5662 5658 5653 5649 5645 5641 5637 5634 5631 5626 5620 5617 5615 5612 5609 5607 5605 5603 5601
5732 5729 5725 5722 5718 5713 5709 5705 5701 5696 5691 5687 5682 5677 5673 5668 5663 5659 5654 5650 5645 5641 5636 5632 5628 5624 5620 5617 5614 5609 5604 5602 5600 5597 5595 5593 5591 5590
5721 5718 5714 5710 5706 5702 5697 5693 5688 5684 5679 5675 5670 5666 5661 5657 5652 5647 5643 5638 5634 5630 5625 5621 5617 5613 5609 5606 5603 5599 5595 5591 5589 5587 5585 5583 5582 5580
5710 5706 5702 5698 5694 5689 5685 5681 5676 5672 5668 5663 5659 5655 5650 5646 5641 5637 5632 5628 5624 5620 5615 5611 5607 5603 5599 5596 5593 5590 5586 5583 5580 5577 5575 5574 5572 5570
5699 5695 5691 5687 5682 5678 5673 5669 5665 5661 5656 5652 5648 5644 5639 5635 5631 5627 5622 5618 5614 5610 5606 5602 5598 5594 5590 5587 5584 5581 5578 5575 5572 5570 5568 5565 5564 5562